User: anonymous   Login
Location: Unspecified
(0.0000°N, 0.0000°E)
Time: 23:54:31
(UTC+00:00)
Language:

APRIZESAT 10 - Orbit

View from above orbital plane
View from above orbital plane
View from above satellite
View from above satellite

Ground track
Ground track

The orbit is defined by the following mean orbital elements,

1 40019U          26145.33743345 +.00000000 +00000-0 +59878-4 0 00008
2 40019  97.9619 272.8107 0078460 347.7574  12.1724 14.70859992    07
Epoch (UTC): 25 May 2026 08:05:54
Eccentricity: 0.0078460
inclination: 97.9619°
perigee height: 603 km
apogee height: 714 km
right ascension of ascending node: 272.8107°
argument of perigee: 347.7574°
revolutions per day: 14.70859992
mean anomaly at epoch: 12.1724°

The dashed part of the orbit path shows where the satellite is in the earth's shadow,  

DLR